Weather History for Seward, AK

Change the Weather History Date:

Thursday, October 25, 2012

  Actual Average Record
Temperature  
Mean Temperature 34 °F -  
Max Temperature 43 °F 40 °F 50 °F (1960)
Min Temperature 25 °F 31 °F 14 °F (1966)
Degree Days  
Heating Degree Days 32    
Moisture  
Dew Point 17 °F    
Average Humidity 54    
Maximum Humidity 66    
Minimum Humidity 35    
Precipitation  
Precipitation 0.00 in - - ()
Sea Level Pressure  
Sea Level Pressure 30.45 in    
Wind  
Wind Speed 9 mph (North)    
Max Wind Speed 15 mph    
Max Gust Speed 21 mph    
Visibility 10 miles    
Events      
Averages and records for this station are not official NWS values.
T = Trace of Precipitation, MM = Missing Value Source: NWS Daily Summary

Daily Weather History Graph

Daily Weather History Graph

Search for Another Location

Airport:

Trip Planner

Search our weather history database for the weather conditions in past years. The results will help you decide how hot, cold, wet, or windy it might be!

Date:

Astronomy

Oct. 25, 2012 Rise Set
Actual Time 9:04 AM AKDT 6:17 PM AKDT
Civil Twilight 8:20 AM AKDT 7:01 PM AKDT
Nautical Twilight 7:31 AM AKDT 7:50 PM AKDT
Astronomical Twilight 6:42 AM AKDT 8:38 PM AKDT
Moon 4:52 PM AKDT 4:18 AM AKDT
Length of Visible Light 10h 41m
Length of Day
9h 13m
Waxing Gibbous, 85% of the Moon is Illuminated
Oct 25
Waxing Gibbous
Oct 29
Full
Nov 6
Last Quarter
Nov 13
New
Nov 20
First Quarter

Hourly Weather History & Observations

Time (AKDT) Temp. Windchill Dew Point Humidity Pressure Visibility Wind Dir Wind Speed Gust Speed Precip Events Conditions
12:53 AM 25.0 °F 16.3 °F 15.1 °F 66% 30.42 in 10.0 mi NNW 8.1 mph - N/A   Clear
1:53 AM 25.0 °F 16.3 °F 15.1 °F 66% 30.43 in 10.0 mi North 8.1 mph - N/A   Clear
2:53 AM 27.0 °F 21.6 °F 14.0 °F 58% 30.44 in 10.0 mi NNW 4.6 mph - N/A   Mostly Cloudy
3:53 AM 30.0 °F 22.4 °F 14.0 °F 51% 30.44 in 10.0 mi North 8.1 mph - N/A   Overcast
4:53 AM 30.0 °F 23.2 °F 15.1 °F 54% 30.44 in 10.0 mi North 6.9 mph - N/A   Overcast
5:53 AM 30.9 °F 22.8 °F 16.0 °F 54% 30.44 in 10.0 mi North 9.2 mph - N/A   Overcast
6:53 AM 30.9 °F 22.2 °F 16.0 °F 54% 30.44 in 10.0 mi North 10.4 mph 18.4 mph N/A   Mostly Cloudy
7:53 AM 28.9 °F 19.8 °F 18.0 °F 64% 30.45 in 10.0 mi North 10.4 mph - N/A   Overcast
8:53 AM 28.9 °F 21.1 °F 18.0 °F 64% 30.46 in 10.0 mi NNE 8.1 mph - N/A   Clear
9:53 AM 28.9 °F 18.2 °F 18.0 °F 64% 30.47 in 10.0 mi NNE 13.8 mph - N/A   Clear
10:53 AM 30.0 °F 21.7 °F 18.0 °F 61% 30.48 in 10.0 mi North 9.2 mph - N/A   Clear
11:53 AM 34.0 °F 27.2 °F 18.0 °F 52% 30.48 in 10.0 mi North 8.1 mph - N/A   Clear
12:53 PM 37.0 °F 31.6 °F 16.0 °F 42% 30.47 in 10.0 mi North 6.9 mph - N/A   Clear
1:53 PM 39.9 °F 34.5 °F 16.0 °F 38% 30.46 in 10.0 mi North 8.1 mph - N/A   Clear
2:53 PM 42.1 °F 37.1 °F 16.0 °F 35% 30.45 in 10.0 mi North 8.1 mph - N/A   Clear
3:53 PM 42.1 °F 37.1 °F 17.1 °F 37% 30.45 in 10.0 mi North 8.1 mph 17.3 mph N/A   Clear
4:53 PM 39.0 °F 32.3 °F 18.0 °F 43% 30.44 in 10.0 mi North 10.4 mph - N/A   Clear
5:53 PM 37.0 °F 28.9 °F 18.0 °F 46% 30.43 in 10.0 mi North 12.7 mph 18.4 mph N/A   Clear
6:53 PM 35.1 °F 27.4 °F 19.0 °F 52% 30.44 in 10.0 mi North 10.4 mph - N/A   Clear
7:53 PM 33.1 °F 26.9 °F 19.0 °F 56% 30.44 in 10.0 mi North 6.9 mph - N/A   Clear
8:53 PM 32.0 °F 24.8 °F 19.9 °F 61% 30.45 in 10.0 mi NNE 8.1 mph - N/A   Clear
9:53 PM 32.0 °F 23.0 °F 19.0 °F 59% 30.45 in 10.0 mi North 11.5 mph 18.4 mph N/A   Clear
10:53 PM 30.9 °F 20.2 °F 19.9 °F 64% 30.44 in 10.0 mi North 15.0 mph 20.7 mph N/A   Clear
11:53 PM 30.0 °F 20.0 °F 19.9 °F 66% 30.44 in 10.0 mi North 12.7 mph - N/A   Clear